Theta_e
294 294 294 294 293 293 293 293 292 292 292 291 291 290 290 290 289 290 290 290 290 289 289 289 289 288 290 291 291 293 293 293
294 294 293 292 292 292 291 291 291 290 289 289 288 287 287 288 289 289 289 289 288 287 287 286 287 288 288 290 290 290 292 294
293 292 291 291 291 291 290 290 290 289 288 288 288 287 287 287 288 288 289 288 288 288 285 285 287 287 287 288 288 289 290 293
292 292 290 289 289 289 290 289 289 289 289 289 288 288 287 286 286 286 287 288 286 286 286 286 285 286 286 286 288 287 287 290
292 291 289 288 288 289 290 290 289 288 288 287 285 284 282 283 284 284 285 287 285 285 287 286 285 286 286 285 287 286 287 285
290 290 290 290 289 288 289 289 288 286 286 285 284 282 282 282 282 282 283 284 284 283 284 285 283 284 286 285 284 285 285 285
291 292 291 289 288 288 287 286 286 286 285 283 282 280 280 279 280 279 280 282 282 281 282 282 282 282 284 284 282 284 284 284
290 290 288 287 286 286 286 285 284 284 283 282 280 279 278 278 278 279 279 279 279 279 280 280 280 280 282 282 280 282 282 282
290 289 287 285 286 285 285 284 283 282 282 280 280 279 279 278 278 278 278 279 279 279 279 279 279 279 279 280 279 279 281 280
290 288 285 285 284 284 284 283 282 282 282 281 280 280 279 279 278 278 278 279 280 279 278 278 278 278 278 278 277 276 278 278
286 285 284 283 283 283 283 283 281 282 282 281 281 281 280 280 279 278 278 279 279 279 279 277 277 276 276 276 275 276 276 277
285 284 283 282 279 281 281 281 278 279 281 281 281 281 282 281 279 278 278 278 279 279 279 277 276 275 275 275 275 274 275 275
281 282 282 280 279 279 280 280 280 278 279 281 282 281 279 281 278 278 277 276 278 278 278 277 276 275 274 273 273 273 272 274
281 281 280 280 279 277 278 279 281 282 282 280 282 282 275 278 274 273 275 274 273 273 274 274 274 273 272 271 271 271 271 271
281 279 278 278 279 281 281 282 282 282 282 281 277 278 280 278 276 276 274 276 273 271 271 269 270 270 272 272 271 268 269 271
281 280 279 278 279 282 284 285 285 282 282 282 281 280 279 279 278 277 277 277 277 272 273 273 274 274 278 274 275 270 271 272
283 281 281 280 281 282 284 285 284 285 283 281 281 280 279 278 277 277 277 276 276 276 277 277 274 279 279 279 277 275 273 274
284 282 282 282 282 282 283 284 284 284 283 282 281 280 279 278 277 277 276 276 276 276 276 277 276 277 279 279 278 277 276 276
285 284 282 282 282 282 283 283 283 281 281 281 280 280 279 278 277 276 276 276 275 275 276 276 276 278 279 279 278 276 276 277
Wind_Speed
8 8 8 9 8 7 7 6 7 6 5 5 5 5 5 4 5 6 8 7 10 8 7 8 8 8 8 9 10 9 9 12
7 8 9 9 7 8 7 7 6 4 4 3 4 3 3 4 5 7 7 7 9 8 7 8 8 8 11 11 9 11 9 10
9 7 7 7 7 7 6 7 6 5 3 3 3 2 3 2 3 5 8 8 10 9 9 8 10 8 10 11 11 9 7 9
10 9 8 7 7 7 6 6 7 6 6 4 3 3 2 3 5 5 6 9 10 10 9 9 9 9 8 10 10 12 8 9
10 10 8 7 7 6 6 6 7 7 6 6 5 3 3 3 3 4 5 8 9 10 11 9 10 8 10 10 10 9 9 9
10 8 9 8 7 6 8 8 8 7 7 6 4 5 3 2 3 5 6 5 8 10 9 9 9 8 9 10 10 10 8 7
8 7 9 9 8 7 6 8 8 7 7 6 7 7 5 4 4 4 4 5 6 9 10 9 8 9 10 9 10 11 10 9
10 11 9 9 9 8 7 7 8 7 7 7 7 7 5 5 5 4 5 5 5 8 9 9 8 9 10 8 9 10 11 10
12 12 9 8 9 6 8 8 8 7 7 7 6 5 4 4 4 4 4 4 5 7 8 8 9 9 9 9 7 8 11 10
10 10 9 9 8 8 8 9 7 7 7 5 5 5 5 5 5 5 3 4 6 7 8 8 9 9 10 9 8 11 10 9
8 8 7 5 6 6 7 7 8 6 6 5 5 5 5 4 5 6 5 5 6 7 8 9 9 10 10 10 9 10 11 10
11 9 7 8 5 7 6 7 7 6 6 5 5 4 4 4 6 5 5 5 7 8 8 9 9 10 11 10 11 12 12 12
8 10 10 8 8 7 8 6 7 6 4 6 5 5 3 5 5 5 5 5 6 6 7 8 8 10 9 10 11 10 10 12
11 10 9 8 7 6 6 6 7 6 5 4 4 4 5 5 3 2 4 5 6 6 6 6 6 6 7 8 7 8 9 10
12 9 7 7 7 8 7 7 6 6 6 5 5 4 6 5 4 4 2 4 5 6 5 4 2 3 6 5 7 7 7 8
13 12 10 8 8 7 8 8 7 6 6 6 6 7 6 6 5 4 4 5 5 4 5 6 4 3 6 6 8 6 7 9
13 12 12 12 11 9 9 9 8 7 6 6 7 8 6 5 5 4 4 4 4 5 7 7 6 7 15 15 10 7 7 10
16 15 14 12 11 10 10 9 6 7 6 7 8 8 7 6 5 5 5 4 3 4 5 6 7 7 14 15 15 9 9 9
13 12 11 11 9 8 8 7 7 7 7 8 8 8 7 6 5 5 4 3 3 4 6 6 5 8 13 13 13 8 8 10
Wind_Direction
136 120 108 103 96 89 85 79 73 74 72 72 63 59 44 32 34 30 23 13 9 9 359 351 349 341 340 341 335 333 320 315
121 112 109 103 83 86 73 74 52 58 65 69 60 57 32 27 35 24 23 25 15 14 3 355 349 350 345 344 332 330 325 325
130 116 107 97 106 95 88 82 64 50 53 56 86 105 61 53 13 16 19 23 14 15 6 353 1 352 349 347 339 336 331 336
139 126 115 113 110 112 102 81 76 64 58 55 48 58 39 24 22 17 9 26 17 8 7 7 359 0 355 348 348 349 332 330
135 135 128 130 119 113 103 92 81 71 58 67 68 69 50 4 358 4 0 20 19 11 1 3 2 356 358 0 354 350 342 337
138 144 129 134 123 114 106 96 78 70 72 75 73 57 45 19 9 13 6 19 15 9 4 359 5 353 0 356 0 355 357 337
136 126 127 129 124 112 111 103 90 81 72 66 71 67 47 25 11 26 7 11 9 5 1 6 4 2 2 0 360 360 356 356
149 153 144 144 130 121 120 106 90 81 77 64 62 64 58 46 31 20 15 15 9 2 4 2 5 0 358 10 3 1 3 355
167 164 151 137 126 129 123 115 109 99 87 79 75 64 50 43 41 33 25 8 6 2 9 9 9 6 6 6 13 8 8 4
165 144 150 144 138 128 132 127 113 107 106 114 91 70 60 46 41 36 19 3 22 12 21 17 14 15 14 14 19 13 2 359
145 146 145 124 124 126 119 114 120 119 120 126 114 104 80 60 51 45 29 8 17 21 24 26 23 21 15 19 21 12 11 4
162 152 147 138 140 134 128 124 120 122 131 130 121 106 99 78 59 37 25 23 22 28 30 34 33 31 23 26 25 12 12 10
151 154 154 160 150 145 146 143 137 152 151 130 122 107 102 93 70 50 32 30 25 30 29 41 41 38 28 30 32 14 6 9
161 156 161 162 152 146 143 145 151 159 153 141 120 122 122 113 113 73 41 36 27 19 26 28 33 36 27 22 17 8 7 4
162 157 165 161 162 158 157 151 147 150 148 159 122 96 113 130 149 112 69 45 29 16 8 360 14 37 38 19 22 1 8 3
172 167 171 164 166 159 162 164 158 146 141 135 128 122 111 108 109 99 72 59 34 4 19 13 14 47 54 37 26 7 20 24
172 171 172 174 177 168 166 167 164 156 146 135 126 124 123 122 115 98 77 63 42 27 44 41 23 47 51 49 42 29 17 38
175 180 176 175 174 169 172 167 154 159 155 138 136 136 134 131 120 104 91 74 55 37 36 52 50 50 53 50 44 40 36 35
177 174 171 170 161 155 146 145 146 141 134 139 140 141 138 134 125 115 103 79 60 50 41 26 46 58 54 51 42 38 37 37